Regional Weather Roundup
Issued by NWS

Home | Current Version | Previous Version | Graphics & Text | Print | Product List | Glossary On
Versions: 1 2 3 4 5 6 7 8 9 10 11 12 13 14 15 16 17 18 19 20 21 22 23 24 25 26 27 28 29 30 31 32 33 34 35 36 37 38 39 40 41 42 43 44 45 46 47 48 49 50
000
ASUS43 KMKX 241411
RWRWI

WISCONSIN REGIONAL WEATHER ROUNDUP
NATIONAL WEATHER SERVICE MILWAUKEE/SULLIVAN WI
900 AM CDT FRI OCT 24 2014

NOTE: "FAIR" INDICATES FEW OR NO CLOUDS BELOW 12,000 FEET WITH NO
SIGNIFICANT WEATHER AND/OR OBSTRUCTIONS TO VISIBILITY.

WIZ001-002-006>008-014>016-023>028-241500-
NORTHWEST WISCONSIN

CITY           SKY/WX    TMP DP  RH WIND       PRES   REMARKS
SUPERIOR ARPT  PTSUNNY   42  42 100 CALM      29.87F FOG
ASHLAND        PTSUNNY   50  48  93 S7        29.90F
HAYWARD        CLOUDY    49  46  90 S6        29.93F
SIREN          SUNNY     48  47  96 S9        29.90F
CUMBERLAND     CLOUDY    46  46 100 SE8       29.94F FOG
RICE LAKE      CLOUDY    49  47  93 SE8       29.96F FOG
CHETEK         CLOUDY    48  48  98 E9        29.96S FOG
LADYSMITH      CLOUDY    47  47  97 S6        29.99S FOG
EAU CLAIRE     CLOUDY    50  48  93 SE7       29.97R
MENOMONIE      CLOUDY    50  49  97 SE8       29.96  FOG
NEW RICHMOND   MOSUNNY   48  48 100 SE7       29.92S
OSCEOLA        MOSUNNY   49  49 100 SE8       29.94S
$$

WIZ003>005-009-010-017-018-241500-
NORTH CENTRAL WISCONSIN

CITY           SKY/WX    TMP DP  RH WIND       PRES   REMARKS
MANITOWISH WTR FOG       44  44 100 SW7       29.96R VSB 1/2
ARBOR VITAE    FOG       44  43  97 S6        29.97R VSB 1/4
WOODRUFF       FOG       44  43  97 S6        29.97R VSB 1/4
RHINELANDER    FOG       43  43 100 S6        29.99S VSB 1/4
EAGLE RIVER    FOG       43  43 100 CALM      29.97S VSB 1/4
LAND O LAKES   FOG       44  44 100 SW5       29.97S VSB 1/2
PHILLIPS       FOG       44  44 100 S6        29.97S VSB 3/4
TOMAHAWK       FOG       43  43  98 CALM      30.00S VSB 1/2
MEDFORD        FOG       44  44 100 SE5       29.99F VSB 1/4
MERRILL        FOG       44  44 100 SW3       30.00S VSB 1/2
$$

WIZ029-030-035-036-043>047-241500-
CENTRAL WISCONSIN

CITY           SKY/WX    TMP DP  RH WIND       PRES   REMARKS
WAUSAU         FOG       45  45 100 S3        30.00R VSB 1/4
MOSINEE        FOG       45  45 100 CALM      30.01S VSB 1/8
MARSHFIELD     FOG       46  45  96 S6        30.00R VSB<1/4
STEVENS POINT  FOG       44  44 100 S5        30.01F VSB 1/4
WAUPACA        CLOUDY    48  47  96 SW3       30.03S FOG
WAUTOMA        FOG       47  47 100 CALM      30.03S VSB 1/4
WISC RAPIDS    FOG       46  46 100 S6        30.03S VSB 1/4
CAMP DOUGLAS   CLOUDY    48  48 100 SE5       30.01F FOG
$$

WIZ011>013-019>022-031-037>040-048>050-241500-
NORTHEAST WISCONSIN

CITY           SKY/WX    TMP DP  RH WIND       PRES   REMARKS
ANTIGO         FOG       43  43 100 SW5       30.00S VSB 1/4
SHAWANO        CLOUDY    48  46  95 SW5       30.02S FOG
OCONTO         CLOUDY    46  46 100 SW6       30.01F
STURGEON BAY   CLOUDY    48  45  87 SW8       30.01F
GREEN BAY      CLOUDY    48  47  96 W6        30.02F FOG
MANITOWOC      CLOUDY    50  48  93 W6        30.03F
APPLETON         N/A     46  46 100 VRB6      30.03S FOG
CLINTONVILLE   CLOUDY    46  45  93 SW6       30.02S FOG
OSHKOSH        CLOUDY    48  47  96 CALM      30.03S FOG
$$

WIZ032>034-041-042-053>061-241500-
SOUTHWEST WISCONSIN

CITY           SKY/WX    TMP DP  RH WIND       PRES   REMARKS
LA CROSSE      FOG       51  50  96 S10       29.99R VSB 1
SPARTA         CLOUDY    48  48 100 CALM      30.01F FOG
VIROQUA        CLOUDY    49  49 100 CALM      30.00S VSB<1/4
BOSCOBEL       CLOUDY    52  50  93 CALM      30.02F FOG
PRAIRIE DU CHI FOG       52  51  97 SE3       30.01S VSB 3/4
PLATTEVILLE    CLOUDY    51  51  98 SE7       30.04F VSB<1/4
$$

WIZ056-057-062-063-064-067-068-241500-
SOUTH CENTRAL WISCONSIN

CITY           SKY/WX    TMP DP  RH WIND       PRES   REMARKS
REEDSBURG      FOG       46  46 100 S7        30.02F VSB 1/4
BARABOO/DELLS  FOG       46  45  96 S6        30.02F VSB<1/4
LONE ROCK      CLOUDY    53  48  83 S3        30.03F HAZE
MINERAL POINT  FOG       52  50  93 S6        30.04F VSB 1/4
MADISON        FOG       50  48  93 S6        30.04F VSB 3/4
MIDDLETON      CLOUDY    49  49 100 S3        30.05S VSB 1/2
WATERTOWN      CLOUDY    48  48 100 CALM      30.04F FOG
MONROE         FOG       48  48 100 S5        30.05S VSB<1/4
JANESVILLE     FOG       52  48  87 CALM      30.06R VSB 1
$$

WIZ051-052-058>065-066-070>072-241500-
SOUTHEAST WISCONSIN

CITY           SKY/WX    TMP DP  RH WIND       PRES   REMARKS
MILWAUKEE      CLOUDY    50  47  89 W6        30.05S
WAUKESHA       CLOUDY    46  46 100 W7        30.06R FOG
MILWAUKEE/TIMM CLOUDY    48  46  93 W8        30.06S FOG
RACINE         CLOUDY    51  48  89 W6        30.07S
BURLINGTON     CLOUDY    48  48  98 CALM      30.05F FOG
KENOSHA        CLOUDY    50  49  96 W5        30.06S FOG
FOND DU LAC    CLOUDY    48  46  93 SW5       30.04S
SHEBOYGAN      CLOUDY    49  46  90 W6        30.04S
WEST BEND      CLOUDY    46  45  93 W5        30.04F FOG
JUNEAU         CLOUDY    47  47  98 S3        30.05F FOG
$$

LSZ147-162-241500-
LAKE SUPERIOR

STATION/POSITION TIME  TEMP    WIND        PRES    WAVE
                       AIR SEA DIR/SP/G            HT/PER
                 (UTC) (F)     (DEG/KT/KT) (MB)    (FT/S)
W MID LAKE BUOY  1350   47 46  160/  8/  8 1012.3F   1/ 3
DEVILS ISLAND    1400   50     180/  3/  5 1012.1F
PORT WING        1300   50     210/  3/  6 1012.2
SAXON HARBOR     1300   52     190/  7/ 12 1012.5R
$$

LMZ867-665-643>646-241500-
LAKE MICHIGAN

STATION/POSITION TIME  TEMP    WIND        PRES    WAVE
                       AIR SEA DIR/SP/G            HT/PER
                 (UTC) (F)     (DEG/KT/KT) (MB)    (FT/S)
CHAMBERS ISLAND  1300   48     240/  6/  9 1016.6R
N MID LAKE BUOY  1350   50 51  240/ 10/ 10 1016.3R   2/ 5
NORTHPORT PIER   1300   49     220/  1/  3 1016.3R
SISTER BAY       1342          270/  8/ 10   N/A
KEWAUNEE LAKESHO 1300   49     250/  4/  5 1015.9R
SHEBOYGAN LAKESH 1400   49 50  260/  4/  6 1017.7F
PORT WASHINGTON  1300   50     300/  5/  6 1018.3
ATWATER BUOY     1400   50     310/  4/  6 1018.7R
MILWAUKEE LAKESH 1300   51     280/  5/  6   N/A
S MID LAKE BUOY  1350   53 54  270/  8/ 10 1018.1R   1
KENOSHA   LAKESH 1400   50     300/  5/  8 1017.9S
$$

TC  - TEMPERATURE IN CELSIUS
VSB - VISIBILITY IN STATUTE MILES
WCI - WIND CHILL INDEX
HX  - HEAT INDEX




USA.gov is the U.S. government's official web portal to all federal, state and local government web resources and services.